Flag for Spain Weather past 2 weeks in Pamplona, Spain

Now
54 °F

Sprinkles. Passing clouds.


Feels Like: 54 °F
Forecast: 39 / 61 °F
Wind: 2 mph from North

Location: Pamplona / Noain


UV Index: 0 (Low)

Visibility: N/A


Pressure: 29.68 "Hg

Humidity: 82%

Dew point: 48 °F

Location of PamplonaLocation

Historic Weather in Pamplona

°F

Pamplona temperature yesterday

Maximum temperature yesterday: 63 °F (at 2:00 PM)
Minimum temperature yesterday: 43 °F (at 5:30 AM)
Average temperature yesterday: 56 °F

Past Weeks' High & Low Weather Summary

 TemperatureHumidityPressure
High81 °F (Apr 16, 5:30 PM)100% (Apr 5, 8:00 AM)30.30 "Hg (Apr 5, 8:00 AM)
Low39 °F (Apr 18, 5:30 AM)12% (Apr 18, 2:00 PM)29.62 "Hg (Apr 19, 8:00 PM)
Average61 °F64%30.07 "Hg
* Reported Midnight between Apr 4 and Apr 5 — Midnight between Apr 19 and Apr 20, Pamplona, Weather by CustomWeather, © 2014

Note: Actual official high and low records may vary slightly from our data, if they occured in-between our weather recording intervals... More about our weather records

Advertising

Historic Weather Conditions — Data for Previous 24 hours

 ConditionsComfort  
Time TempWeatherWind HumidityBarometerVisibility
12:00 AM
Apr 20
54 °FSprinkles. Passing clouds.2 mph82%29.68 "HgN/A
11:30 PM
Apr 19
54 °FSprinkles. Passing clouds.5 mph82%29.65 "HgN/A
11:00 PM55 °FPassing clouds.7 mph77%29.68 "HgN/A
10:30 PM55 °FPassing clouds.7 mph72%29.68 "HgN/A
10:00 PM55 °FPassing clouds.9 mph72%29.68 "HgN/A
9:30 PM55 °FPassing clouds.13 mph72%29.65 "HgN/A
8:30 PM57 °FPassing clouds.8 mph67%29.62 "HgN/A
8:00 PM59 °FPassing clouds.12 mph63%29.62 "HgN/A
7:30 PM59 °FPassing clouds.10 mph63%29.65 "HgN/A
7:00 PM61 °FPassing clouds.9 mph55%29.65 "HgN/A
6:30 PM61 °FPassing clouds.9 mph55%29.68 "HgN/A
6:00 PM63 °FScattered clouds.12 mph52%29.68 "HgN/A
5:30 PM63 °FScattered clouds.15 mph52%29.68 "HgN/A
5:00 PM63 °FScattered clouds.17 mph56%29.68 "HgN/A
4:30 PM63 °FScattered clouds.15 mph56%29.71 "HgN/A
4:00 PM63 °FScattered clouds.14 mph56%29.74 "HgN/A
3:30 PM63 °FScattered clouds.14 mph56%29.74 "HgN/A
3:00 PM63 °FPartly sunny.14 mph56%29.74 "HgN/A
2:30 PM63 °FPartly sunny.15 mph56%29.74 "HgN/A
2:00 PM63 °FPartly sunny.16 mph52%29.77 "HgN/A
1:30 PM61 °FPartly sunny.16 mph55%29.77 "HgN/A
1:00 PM61 °FPartly sunny.14 mph55%29.77 "HgN/A
12:30 PM61 °FPartly sunny.18 mph59%29.80 "HgN/A
12:00 PM61 °FScattered clouds.18 mph55%29.80 "HgN/A
11:30 AM59 °FScattered clouds.15 mph59%29.80 "HgN/A
11:00 AM57 °FPassing clouds.13 mph67%29.80 "HgN/A
10:30 AM55 °FPassing clouds.12 mph67%29.83 "HgN/A
10:00 AM54 °FPassing clouds.10 mph72%29.83 "HgN/A
9:30 AM52 °FPassing clouds.12 mph72%29.83 "HgN/A
9:00 AM52 °FPassing clouds.8 mph72%29.83 "HgN/A
8:30 AM48 °FSunny.1 mph71%29.83 "Hg10 mi
8:00 AM46 °FClear.No wind71%29.83 "Hg10 mi
7:30 AM43 °FClear.3 mph71%29.83 "Hg10 mi
7:00 AM43 °FClear.No wind76%29.83 "Hg10 mi
6:30 AM45 °FClear.1 mph66%29.83 "Hg10 mi
6:00 AM45 °FClear.1 mph66%29.83 "Hg10 mi
5:30 AM43 °FClear.1 mph71%29.86 "Hg10 mi
Weather by CustomWeather, © 2014

See weather overview